This demonstration page uses our WeatherBlox Daily Observations layout. Learn more.

Left ArrowRight Arrow

Hourly Observations for July 15, 2018

Temp ( °F °C ) Dew Point ( °F °C ) Humidity (%) Winds ( mph kmh ) Pressure ( in mb ) Visibility ( mi km ) Precip ( " mm )
12:53 am 00:53 Clear 84 28.9 58 14.4 41 41 N 3 6 29.85 1011 10 16 0.00 0.00
1:53 am 01:53 Clear 83 28.3 60 15.6 46 46 N 3 6 29.86 1011 10 16 0.00 0.00
2:53 am 02:53 Clear 81 27.2 60 15.6 49 49 Calm 29.86 1011 10 16 0.00 0.00
3:53 am 03:53 Clear 82 27.8 61 16.1 49 49 NW 5 7 29.86 1011 10 16 0.00 0.00
4:53 am 04:53 Clear 77 25 61 16.1 58 58 Calm 29.86 1011 10 16 0.00 0.00
5:53 am 05:53 Sunny 77 25 60 15.6 56 56 NNE 3 6 29.87 1012 10 16 0.00 0.00
6:53 am 06:53 Sunny 78 25.6 60 15.6 54 54 Calm 29.88 1012 10 16 0.00 0.00
7:53 am 07:53 Sunny 80 26.7 59 15 49 49 S 3 6 29.89 1012 10 16 0.00 0.00
8:53 am 08:53 Sunny 83 28.3 59 15 44 44 SSW 6 9 29.90 1013 10 16 0.00 0.00
9:53 am 09:53 Sunny 87 30.6 59 15 39 39 SSW 6 9 29.88 1012 10 16 0.00 0.00
10:53 am 10:53 Sunny 91 32.8 58 14.4 33 33 VRB 5 7 29.87 1012 10 16 0.00 0.00
11:53 am 11:53 Sunny 95 35 59 15 30 30 SSE 5 7 29.86 1011 10 16 0.00 0.00
12:53 pm 12:53 Sunny 97 36.1 59 15 28 28 Calm 29.85 1011 10 16 0.00 0.00
1:53 pm 13:53 Sunny 101 38.3 58 14.4 24 24 S 9 15 29.83 1010 10 16 0.00 0.00
2:53 pm 14:53 Sunny 103 39.4 57 13.9 22 22 SSE 14 22 29.81 1010 10 16 0.00 0.00
3:53 pm 15:53 Sunny 103 39.4 56 13.3 21 21 S 7 11 29.79 1009 10 16 0.00 0.00
4:53 pm 16:53 Sunny 104 40 57 13.9 21 21 SSE 12 19 29.78 1008 10 16 0.00 0.00
5:53 pm 17:53 Sunny 103 39.4 57 13.9 22 22 SSE 8 13 29.78 1008 10 16 0.00 0.00
6:53 pm 18:53 Sunny 101 38.3 57 13.9 23 23 SSE 9 15 29.78 1008 10 16 0.00 0.00
7:53 pm 19:53 Sunny 97 36.1 57 13.9 26 26 Calm 29.79 1009 10 16 0.00 0.00
8:53 pm 20:53 Clear 94 34.4 57 13.9 29 29 NW 3 6 29.80 1009 10 16 0.00 0.00
9:53 pm 21:53 Clear 92 33.3 58 14.4 32 32 W 5 7 29.82 1010 10 16 0.00 0.00
10:53 pm 22:53 Clear 88 31.1 61 16.1 40 40 NNW 3 6 29.84 1011 10 16 0.00 0.00
11:53 pm 23:53 Clear 86 30 62 16.7 45 45 Calm 29.84 1011 10 16 0.00 0.00

Powered by AerisWeather